EW0802 Weather Reports


time (UTC)temp
F
wind
direction
speed
knots
gust
knots
rain 1hr
in
rain 24hr
in
rain mn
in
humidity
%
barometer
mb
20260506141529 54 133 0.0 1.7 0.00 0.00 0.00 83 1013.1
20260506140021 54 135 0.0 1.7 0.00 0.00 0.00 83 1013.0
20260506134520 54 134 0.0 2.6 0.00 0.00 0.00 82 1012.7
20260506133016 54 132 0.0 2.6 0.00 0.00 0.00 81 1012.5
20260506131515 54 136 0.0 2.6 0.00 0.00 0.00 80 1012.5
20260506130013 55 133 0.0 1.7 0.00 0.00 0.00 79 1011.8
20260506124509 55 133 0.0 1.7 0.00 0.00 0.00 78 1011.9
20260506123007 55 134 0.0 2.6 0.00 0.00 0.00 78 1011.7
20260506121513 56 132 0.0 1.7 0.00 0.00 0.00 77 1011.3
20260506120111 56 132 0.0 1.7 0.00 0.00 0.00 77 1011.2
20260506114559 56 133 0.0 1.7 0.00 0.00 0.00 78 1011.2
20260506113058 57 133 0.0 0.0 0.00 0.00 0.00 78 1010.7
20260506111554 57 134 0.0 0.9 0.00 0.00 0.00 77 1010.4
20260506110100 57 133 0.0 0.9 0.00 0.00 0.00 77 1010.5
20260506104602 58 134 0.9 1.7 0.00 0.00 0.00 77 1010.2
20260506103049 58 134 0.0 1.7 0.00 0.00 0.00 78 1009.7
20260506101543 58 134 0.0 0.0 0.00 0.00 0.00 77 1009.4
20260506100051 59 132 0.0 0.0 0.00 0.00 0.00 78 1009.2
20260506094541 59 134 0.0 1.7 0.00 0.00 0.00 77 1009.1
20260506093038 59 134 0.0 0.9 0.00 0.00 0.00 77 1008.9
20260506091537 60 134 0.0 1.7 0.00 0.00 0.00 77 1008.8
20260506090034 60 134 0.0 0.9 0.00 0.00 0.00 77 1008.8
20260506084607 60 134 0.0 0.9 0.00 0.00 0.00 77 1008.7
20260506083030 61 134 0.0 0.0 0.00 0.00 0.00 77 1008.5
20260506081536 61 134 0.0 0.0 0.00 0.00 0.00 77 1008.4
20260506073023 62 134 0.0 1.7 0.00 0.00 0.00 79 1008.2
20260506071526 62 134 0.0 1.7 0.00 0.00 0.00 78 1008.1
20260506061517 63 135 0.0 1.7 0.00 0.00 0.00 78 1008.0
20260506044503 66 134 0.0 0.0 0.00 0.00 0.00 76 1007.8
20260506043100 67 132 0.0 3.5 0.00 0.00 0.00 75 1008.0
20260506041607 68 134 0.0 1.7 0.00 0.00 0.00 75 1007.8
20260506040053 68 134 0.0 1.7 0.00 0.00 0.00 74 1007.6
20260506034555 69 133 0.0 1.7 0.00 0.00 0.00 74 1007.0
20260506033050 69 131 0.0 1.7 0.00 0.00 0.00 73 1006.8
20260506031547 69 134 0.0 0.9 0.00 0.00 0.00 71 1006.6
20260506030044 70 134 0.0 0.9 0.00 0.00 0.00 70 1006.4
20260506024542 70 134 0.0 1.7 0.00 0.00 0.00 70 1006.3
20260506023056 71 132 0.0 2.6 0.00 0.00 0.00 70 1006.0
20260506021603 72 132 0.0 1.7 0.00 0.00 0.00 69 1005.5
20260506020034 73 134 0.0 0.9 0.00 0.00 0.00 69 1004.8
20260506014534 74 132 0.0 1.7 0.00 0.00 0.00 69 1004.6
20260506013035 74 132 0.0 1.7 0.00 0.00 0.00 68 1004.6
20260506011533 76 132 0.0 1.7 0.00 0.00 0.00 66 1004.0
20260506010035 77 133 0.0 0.0 0.00 0.00 0.00 64 1004.1
20260506004534 78 134 0.0 0.0 0.00 0.00 0.00 65 1003.5
20260506003031 79 134 0.0 0.0 0.00 0.00 0.00 63 1003.7
20260506001531 80 133 0.0 0.0 0.00 0.00 0.00 61 1003.4
20260506000030 81 132 0.0 1.7 0.00 0.00 0.00 61 1003.5
20260505234529 83 133 0.0 3.5 0.00 0.00 0.00 59 1003.1
20260505233028 85 133 0.0 0.9 0.00 0.00 0.00 54 1002.7
20260505231545 86 135 0.0 0.9 0.00 0.00 0.00 53 1002.6
20260505230027 87 134 0.0 5.2 0.00 0.00 0.00 61 1002.4
20260505224527 89 37 0.0 2.6 0.00 0.00 0.00 59 1001.9
20260505223025 90 247 0.0 1.7 0.00 0.00 0.00 50 1001.9
20260505221525 91 214 0.9 2.6 0.00 0.00 0.00 51 1001.7
20260505220025 91 162 0.9 2.6 0.00 0.00 0.00 52 1001.8
20260505214622 91 175 0.9 3.5 0.00 0.00 0.00 54 1001.8
20260505213033 90 138 0.0 3.5 0.00 0.00 0.00 52 1001.9
20260505211519 90 258 0.0 4.3 0.00 0.00 0.00 53 1002.3
20260505210017 89 138 1.7 6.1 0.00 0.00 0.00 54 1002.4
20260505204515 90 186 0.9 3.5 0.00 0.00 0.00 54 1002.6
20260505203020 89 221 0.9 5.2 0.00 0.00 0.00 56 1002.7
20260505201527 89 277 0.9 6.1 0.00 0.00 0.00 56 1002.9
20260505200013 88 267 0.9 3.5 0.00 0.00 0.00 60 1003.1
20260505194509 88 329 1.7 6.1 0.00 0.00 0.00 61 1003.1
20260505193008 87 262 1.7 7.8 0.00 0.00 0.00 62 1003.3
20260505191510 86 140 1.7 9.6 0.00 0.00 0.00 63 1003.2
20260505190010 86 329 0.9 9.6 0.00 0.00 0.00 63 1003.2
20260505184507 86 157 2.6 7.8 0.00 0.00 0.00 62 1003.4
20260505183102 85 67 2.6 8.7 0.00 0.00 0.00 63 1003.5
20260505181558 84 109 0.9 6.1 0.00 0.00 0.00 66 1003.6
20260505180002 83 283 1.7 8.7 0.00 0.00 0.00 67 1003.7
20260505174604 83 55 0.9 6.1 0.00 0.00 0.00 67 1003.7
20260505173057 82 248 0.9 8.7 0.00 0.00 0.00 69 1003.8
20260505171553 81 254 1.7 8.7 0.00 0.00 0.00 71 1003.7
20260505170107 82 134 0.9 7.0 0.00 0.00 0.00 70 1003.8
20260505164550 81 106 2.6 6.1 0.00 0.00 0.00 71 1003.9
20260505163047 81 227 0.9 7.8 0.00 0.00 0.00 72 1003.7
20260505161546 80 205 1.7 8.7 0.00 0.00 0.00 74 1003.5
20260505153040 77 175 3.5 7.0 0.00 0.00 0.00 77 1003.6
20260505151553 77 316 0.9 9.6 0.00 0.00 0.00 77 1003.8